Location: Boncourt
(49.6160°N, 3.9448°E)
Time: 15:26:27
(UTC+00:00)

Gblst 52 Del rocket - Pass Details

Date: 09 February 2023
Orbit: 805 x 1364 km, 51.5° (Epoch: 26 March)

Event Time Altitude Azimuth Distance (km) Brightness Sun altitude
Rises 19:00:30 0° 281° (WNW) 3,391 8.8 -21.1°
Reaches altitude 10° 19:03:01 10° 283° (WNW) 2,420 7.7 -21.5°
Maximum altitude 19:08:35 78° 10° (N) 827 4.0 -22.4°
Enters shadow 19:09:54 53° 84° (E) 989 4.1 -22.6°
